29P/Schwassmann-Wachmann 1 (2019)

Japanese version
Home page
Updated on May 22, 2016

---------------------------------------------------------------------

* Profile

* Pictures

* Orbital Elements

Epoch 2019 Mar. 18.0 TT = JDT 2458560.5
T 2019 Mar. 7.75676 TT                                  MPCW
q   5.7668223            (2000.0)            P               Q
n   0.06662629     Peri.   47.77438     +0.99270157     -0.00956979
a   6.0261366      Node   312.39464     -0.05135108     +0.86841753
e   0.0430316      Incl.    9.36834     +0.10911767     +0.49574127
P  14.79
From 19331 observations 1902 Mar. 5-2016 May 18, mean residual 0".6.

* Finding Charts

* Magnitudes Graph

        m1 = 4.0 + 5 log d + 7.5 log r

---------------------------------------------------------------------

The orbital elements are published on M.P.E.C. 2016-K18.
The charts are made with StellaNavigator Ver.8 (AstroArts).
The magnitudes graphs are made with Comet for Windows.

---------------------------------------------------------------------

Copyright(C) Seiichi Yoshida (comet@aerith.net). All rights reserved.